Du Bois, PA

1:40 AM EST on December 06, 2019 (GMT -0500)
Du Bois-Jefferson County

Weather History for KDUJ - October, 2019

Change the Weather History Date:

Monday, October 7, 2019

  Actual Average Record
Temperature  
Mean Temperature 55 °F 52 °F  
Max Temperature 57 °F 62 °F 82 °F (2007)
Min Temperature 48 °F 42 °F 25 °F (1964)
Degree Days  
Heating Degree Days 10 13  
Month to date heating degree days 54 86  
Since 1 July heating degree days 157 332  
Cooling Degree Days 0 0  
Month to date cooling degree days 23 0  
Year to date cooling degree days 430 360  
Growing Degree Days 5 (Base 50)    
Moisture  
Dew Point 50 °F    
Average Humidity 93    
Maximum Humidity 100    
Minimum Humidity 80    
Precipitation  
Precipitation 1.31 in 0.10 in 1.55 in (2005)
Month to date precipitation 1.84 0.74  
Year to date precipitation 38.24 33.98  
Sea Level Pressure  
Sea Level Pressure 30.16 in    
Wind  
Wind Speed 4 mph ()    
Max Wind Speed 12 mph    
Max Gust Speed 18 mph    
Visibility 5.2 miles    
Events Fog , Rain    
T = Trace of Precipitation, MM = Missing Value Source: Averaged Metar Reports

Daily Weather History Graph

Daily Weather History Graph

Search for Another Location

Airport or City:

Astronomy

Oct. 07, 2019 Rise Set
Actual Time 7:18 AM EDT 6:47 PM EDT
Civil Twilight 6:50 AM EDT 7:15 PM EDT
Nautical Twilight 6:18 AM EDT 7:47 PM EDT
Astronomical Twilight 5:46 AM EDT 8:19 PM EDT
Moon 4:12 PM EDT (10/7) 1:05 AM EDT (10/7)
Length of Visible Light 12h 24m
Length of Day
11h 29m
Waxing Gibbous, 69% of the Moon is Illuminated
Oct 7
Waxing Gibbous
Oct 13
Full
Oct 21
Last Quarter
Oct 27
New
Nov 4
First Quarter

Hourly Weather History & Observations

Time (EDT) Temp. Dew Point Humidity Pressure Visibility Wind Dir Wind Speed Gust Speed Precip Events Conditions
12:02 AM 62.1 °F 60.1 °F 93% 30.11 in 9.0 mi SW 6.9 mph - N/A   Overcast
12:38 AM 62.1 °F 60.1 °F 93% 30.11 in 2.5 mi WSW 8.1 mph - 0.06 in Rain Light Rain
12:49 AM 57.2 °F 53.6 °F 88% 30.11 in 3.0 mi NW 11.5 mph - 0.11 in Rain Light Rain
12:53 AM 57.0 °F 55.0 °F 93% 30.10 in 3.0 mi NW 11.5 mph 18.4 mph 0.13 in Rain Light Rain
1:53 AM 55.0 °F 53.1 °F 93% 30.12 in 2.5 mi NW 6.9 mph - 0.16 in Rain Rain
1:59 AM 55.0 °F 53.1 °F 93% 30.11 in 3.0 mi NNW 6.9 mph - 0.00 in Rain Light Rain
2:35 AM 55.0 °F 53.1 °F 93% 30.12 in 2.5 mi NW 4.6 mph - 0.12 in Rain Light Rain
2:49 AM 55.4 °F 51.8 °F 88% 30.10 in 2.0 mi NNW 6.9 mph - 0.20 in Rain Light Rain
2:53 AM 54.0 °F 52.0 °F 93% 30.09 in 2.0 mi NNW 8.1 mph - 0.23 in Rain Rain
3:05 AM 54.0 °F 50.0 °F 86% 30.10 in 3.0 mi NNW 6.9 mph - 0.06 in Rain Rain
3:12 AM 53.1 °F 50.0 °F 89% 30.10 in 2.5 mi NW 6.9 mph - 0.10 in Rain Rain
3:24 AM 53.1 °F 51.1 °F 93% 30.10 in 3.0 mi NNE 6.9 mph - 0.15 in Rain Light Rain
3:53 AM 52.0 °F 50.0 °F 93% 30.11 in 4.0 mi Calm Calm - 0.21 in Rain Light Rain
4:40 AM 52.0 °F 50.0 °F 93% 30.11 in 2.5 mi Calm Calm - 0.17 in Rain Light Rain
4:48 AM 51.8 °F 50.0 °F 94% 30.11 in 3.0 mi Calm Calm - 0.20 in Rain Light Rain
4:53 AM 52.0 °F 50.0 °F 93% 30.11 in 4.0 mi West 4.6 mph - 0.21 in Rain Light Rain
5:05 AM 52.0 °F 50.0 °F 93% 30.12 in 4.0 mi West 3.5 mph - 0.02 in Rain Light Rain
5:41 AM 52.0 °F 50.0 °F 93% 30.12 in 5.0 mi Calm Calm - 0.08 in Rain Light Rain
5:51 AM 51.8 °F 51.8 °F 100% 30.12 in 7.0 mi Calm Calm - 0.09 in Rain Light Rain
5:53 AM 52.0 °F 51.1 °F 97% 30.11 in 7.0 mi Calm Calm - 0.09 in Rain Light Rain
6:23 AM 52.0 °F 50.0 °F 93% 30.12 in 5.0 mi Calm Calm - 0.04 in Rain Light Rain
6:31 AM 52.0 °F 50.0 °F 93% 30.13 in 6.0 mi Calm Calm - 0.04 in Rain Light Rain
6:53 AM 52.0 °F 51.1 °F 97% 30.12 in 7.0 mi WNW 4.6 mph - 0.05 in Rain Light Rain
7:44 AM 52.0 °F 50.0 °F 93% 30.14 in 8.0 mi West 3.5 mph - 0.01 in Rain Light Rain
7:53 AM 52.0 °F 50.0 °F 93% 30.14 in 6.0 mi West 4.6 mph - 0.01 in Rain Light Rain
8:20 AM 52.0 °F 50.0 °F 93% 30.16 in 5.0 mi West 4.6 mph - 0.02 in Rain Light Rain
8:29 AM 52.0 °F 50.0 °F 93% 30.16 in 5.0 mi West 5.8 mph - 0.03 in Rain Light Rain
8:53 AM 52.0 °F 50.0 °F 93% 30.16 in 6.0 mi West 3.5 mph - 0.05 in Rain Light Rain
9:50 AM 53.6 °F 51.8 °F 94% 30.17 in 7.0 mi WNW 4.6 mph - 0.02 in Rain Light Rain
9:53 AM 53.1 °F 51.1 °F 93% 30.16 in 7.0 mi WNW 4.6 mph - 0.02 in Rain Light Rain
10:12 AM 53.1 °F 51.1 °F 93% 30.16 in 8.0 mi WNW 3.5 mph - 0.00 in Rain Light Rain
10:43 AM 53.1 °F 51.1 °F 93% 30.16 in 10.0 mi West 3.5 mph - 0.01 in   Overcast
10:50 AM 53.6 °F 51.8 °F 94% 30.16 in 10.0 mi NW 3.5 mph - 0.01 in   Overcast
10:53 AM 53.1 °F 51.1 °F 93% 30.16 in 10.0 mi Variable 3.5 mph - 0.01 in   Overcast
11:53 AM 54.0 °F 51.1 °F 90% 30.16 in 5.0 mi West 4.6 mph - 0.01 in Rain Light Rain
12:02 PM 54.0 °F 52.0 °F 93% 30.17 in 6.0 mi West 3.5 mph - 0.01 in Rain Light Rain
12:53 PM 54.0 °F 52.0 °F 93% 30.17 in 7.0 mi Calm Calm - 0.05 in Rain Light Rain
1:51 PM 53.6 °F 51.8 °F 94% 30.16 in 8.0 mi West 4.6 mph - 0.04 in Rain Light Rain
1:53 PM 54.0 °F 51.1 °F 90% 30.16 in 7.0 mi West 4.6 mph - 0.04 in Rain Light Rain
2:05 PM 54.0 °F 51.1 °F 90% 30.16 in 7.0 mi West 5.8 mph - 0.00 in Rain Light Rain
2:53 PM 54.0 °F 48.0 °F 80% 30.16 in 10.0 mi WSW 4.6 mph - 0.03 in   Overcast
3:53 PM 53.1 °F 50.0 °F 89% 30.16 in 10.0 mi WSW 3.5 mph - 0.01 in   Overcast
4:04 PM 53.1 °F 51.1 °F 93% 30.16 in 10.0 mi WSW 4.6 mph - N/A   Overcast
4:53 PM 53.1 °F 48.9 °F 86% 30.16 in 10.0 mi SSW 3.5 mph - N/A   Overcast
5:53 PM 52.0 °F 50.0 °F 93% 30.15 in 10.0 mi Calm Calm - N/A   Overcast
6:53 PM 51.1 °F 48.0 °F 89% 30.18 in 10.0 mi West 4.6 mph - N/A   Mostly Cloudy
7:53 PM 50.0 °F 48.0 °F 93% 30.19 in 10.0 mi WSW 3.5 mph - N/A   Clear
8:51 PM 50.0 °F 48.2 °F 94% 30.20 in 10.0 mi Calm Calm - N/A   Partly Cloudy
9:25 PM 48.9 °F 48.0 °F 97% 30.21 in 1.8 mi Calm Calm - N/A   Clear
9:30 PM 48.9 °F 46.9 °F 93% 30.21 in 0.8 mi Calm Calm - N/A   Mist
9:39 PM 48.9 °F 48.0 °F 97% 30.21 in 1.2 mi Calm Calm - N/A   Partly Cloudy
9:42 PM 48.9 °F 48.0 °F 97% 30.21 in 3.0 mi Calm Calm - N/A   Partly Cloudy
9:53 PM 48.9 °F 46.9 °F 93% 30.23 in 2.5 mi Calm Calm - N/A   Partly Cloudy
9:57 PM 48.9 °F 48.0 °F 97% 30.22 in 1.0 mi Calm Calm - N/A   Mist
10:04 PM 48.9 °F 46.9 °F 93% 30.22 in 0.5 mi Calm Calm - N/A Fog Fog
10:19 PM 48.9 °F 48.0 °F 97% 30.22 in 1.2 mi Calm Calm - N/A   Scattered Clouds
10:26 PM 48.9 °F 48.0 °F 97% 30.23 in 4.0 mi Calm Calm - N/A   Scattered Clouds
10:33 PM 48.9 °F 48.0 °F 97% 30.22 in 1.8 mi Calm Calm - N/A   Partly Cloudy
10:38 PM 48.9 °F 46.9 °F 93% 30.23 in 0.8 mi Calm Calm - N/A   Mist
10:53 PM 48.0 °F 46.9 °F 96% 30.25 in 0.5 mi Calm Calm - N/A Fog Fog
11:06 PM 48.9 °F 48.0 °F 97% 30.24 in 2.0 mi Calm Calm - N/A   Overcast
11:46 PM 48.9 °F 48.0 °F 97% 30.24 in 7.0 mi Calm Calm - N/A   Overcast
11:53 PM 50.0 °F 48.0 °F 93% 30.25 in 3.0 mi WNW 4.6 mph - N/A   Overcast